"Pseudo-MPEC" for ZTF02s2

Created 2019 Feb 19 11:18:17 UT using Find_Orb

Click here for an explanation of pseudo-MPECs

 
 Astrometry: 
     ZTF02s2  C2019 02 10.38528609 55 31.15 +22 36 43.8    ~2E3I 18.28RUNEOCPI41
     ZTF02s2  C2019 02 10.38563309 55 29.86 +22 36 06.9    ~2E3I 18.28RUNEOCPI41
     ZTF02s2  C2019 02 10.39111209 55 08.70 +22 26 05.1    ~2E3I 18.23RUNEOCPI41
     ZTF02s2  C2019 02 10.39145909 55 07.36 +22 25 27.0    ~2E3I 18.23RUNEOCPI41
     ZTF02s2  C2019 02 10.39691509 54 46.42 +22 15 24.7    ~2E3I 17.97RUNEOCPI41
     ZTF02s2  C2019 02 10.39726209 54 45.12 +22 14 47.0    ~2E3I 17.97RUNEOCPI41
     ZTF02s2  C2019 02 10.39981309 54 35.58 +22 09 59.2    ~2AL3 18.27RUNEOCPI41
     ZTF02s2  C2019 02 10.40015909 54 34.26 +22 09 22.2    ~2AL3 18.27RUNEOCPI41
     ZTF02s2  C2019 02 10.40270409 54 24.26 +22 04 44.8    ~2E3I 18.04RUNEOCPI41
     ZTF02s2  C2019 02 10.40305209 54 22.92 +22 04 06.3    ~2E3I 18.04RUNEOCPI41
     ZTF02s2  C2019 02 10.40848209 54 02.12 +21 54 02.7    ~2E3I 18.07RUNEOCPI41
     ZTF02s2  C2019 02 10.40882909 54 00.69 +21 53 24.6    ~2E3I 18.07RUNEOCPI41
     ZTF02s2  C2019 02 10.41714009 53 28.70 +21 37 53.5    ~2E3I 18.72RUNEOCPI41
     ZTF02s2  C2019 02 10.41748709 53 27.34 +21 37 16.4    ~2E3I 18.72RUNEOCPI41

Station data:
(I41) Palomar Mountain--ZTF  (N33.357340 W116.859780)  US/California. 1.2-m
   f/2.44 Oschin Schmidt + CCD.

Orbital elements:  ZTF02s2
   Perihelion 2019 Jan 11.764563 TT = 18:20:58 (JD 2458495.264563)
Epoch 2019 Feb 10.0 TT = JDT 2458524.5   Earth MOID: 0.0108   AutoNEOCP
M  24.19820442                      (J2000 ecliptic)
n   0.82770115     Peri.  148.15930
a   1.12344981     Node   321.37592
e   0.1269676      Incl.   20.11524
P   1.19/434.93d   H   27.9     G   0.15   q 0.98080804  Q 1.26609157
From 14 observations 2019 Feb. 10 (46.4 min); mean residual 3".06
Residuals in arcseconds: 
190210 I41  3.1-  5.1-    190210 I41  .68+  3.3+    190210 I41  1.8+  2.6+    
190210 I41  2.3-  3.7-    190210 I41  4.6+  1.9-    190210 I41  .42+  3.0+    
190210 I41  1.5-  .56+    190210 I41  4.7+  .57-    190210 I41  3.4-  5.7-    
190210 I41  1.5-  .86+    190210 I41  1.7+  4.1+    190210 I41  4.0-  4.2-    
190210 I41  .16+  2.6+    190210 I41  1.6+  4.1+    

Ephemerides (geocentric):
Date (UTC) HH   RA              Dec         delta   r     elong  mag
---- -- -- --  -------------   -----------  ------ ------ -----  ---
2019 02 19 11  07 20 59.650   -49 49 51.77  .05791 1.0084 108.6 24.2
2019 02 19 12  07 20 49.731   -49 52 07.14  .05816 1.0085 108.5 24.2
2019 02 19 13  07 20 39.890   -49 54 21.21  .05842 1.0085 108.5 24.2
2019 02 19 14  07 20 30.126   -49 56 33.99  .05867 1.0086 108.4 24.2
2019 02 19 15  07 20 20.439   -49 58 45.50  .05893 1.0086 108.4 24.2
2019 02 19 16  07 20 10.828   -50 00 55.76  .05919 1.0087 108.3 24.2
2019 02 19 17  07 20 01.292   -50 03 04.78  .05944 1.0087 108.3 24.2
2019 02 19 18  07 19 51.831   -50 05 12.58  .05970 1.0088 108.2 24.3
2019 02 19 19  07 19 42.443   -50 07 19.18  .05995 1.0089 108.2 24.3
2019 02 19 20  07 19 33.128   -50 09 24.59  .06021 1.0089 108.1 24.3
2019 02 19 21  07 19 23.884   -50 11 28.82  .06047 1.0090 108.1 24.3
2019 02 19 22  07 19 14.713   -50 13 31.90  .06072 1.0090 108.0 24.3
2019 02 19 23  07 19 05.611   -50 15 33.84  .06098 1.0091 108.0 24.3
2019 02 20 00  07 18 56.580   -50 17 34.65  .06123 1.0091 108.0 24.3
2019 02 20 01  07 18 47.618   -50 19 34.34  .06149 1.0092 107.9 24.3
2019 02 20 02  07 18 38.724   -50 21 32.94  .06175 1.0093 107.9 24.3
2019 02 20 03  07 18 29.898   -50 23 30.44  .06200 1.0093 107.8 24.3
2019 02 20 04  07 18 21.139   -50 25 26.88  .06226 1.0094 107.8 24.4
2019 02 20 05  07 18 12.447   -50 27 22.26  .06251 1.0094 107.7 24.4
2019 02 20 06  07 18 03.821   -50 29 16.59  .06277 1.0095 107.7 24.4
2019 02 20 07  07 17 55.260   -50 31 09.89  .06303 1.0095 107.6 24.4
2019 02 20 08  07 17 46.763   -50 33 02.17  .06328 1.0096 107.6 24.4
2019 02 20 09  07 17 38.330   -50 34 53.44  .06354 1.0097 107.6 24.4
2019 02 20 10  07 17 29.961   -50 36 43.72  .06380 1.0097 107.5 24.4
2019 02 20 11  07 17 21.654   -50 38 33.01  .06405 1.0098 107.5 24.4
2019 02 20 12  07 17 13.409   -50 40 21.34  .06431 1.0098 107.4 24.4
2019 02 20 13  07 17 05.226   -50 42 08.70  .06456 1.0099 107.4 24.4
2019 02 20 14  07 16 57.104   -50 43 55.12  .06482 1.0099 107.4 24.5
2019 02 20 15  07 16 49.042   -50 45 40.60  .06508 1.0100 107.3 24.5
2019 02 20 16  07 16 41.040   -50 47 25.16  .06533 1.0101 107.3 24.5
2019 02 20 17  07 16 33.097   -50 49 08.80  .06559 1.0101 107.2 24.5
2019 02 20 18  07 16 25.212   -50 50 51.54  .06585 1.0102 107.2 24.5
2019 02 20 19  07 16 17.386   -50 52 33.39  .06610 1.0102 107.2 24.5
2019 02 20 20  07 16 09.617   -50 54 14.36  .06636 1.0103 107.1 24.5
2019 02 20 21  07 16 01.905   -50 55 54.46  .06661 1.0103 107.1 24.5
2019 02 20 22  07 15 54.250   -50 57 33.69  .06687 1.0104 107.0 24.5
2019 02 20 23  07 15 46.650   -50 59 12.07  .06713 1.0105 107.0 24.5
2019 02 21 00  07 15 39.106   -51 00 49.62  .06738 1.0105 107.0 24.5
2019 02 21 01  07 15 31.617   -51 02 26.33  .06764 1.0106 106.9 24.6
2019 02 21 02  07 15 24.183   -51 04 02.22  .06790 1.0106 106.9 24.6
2019 02 21 03  07 15 16.802   -51 05 37.29  .06815 1.0107 106.8 24.6
2019 02 21 04  07 15 09.475   -51 07 11.56  .06841 1.0107 106.8 24.6
2019 02 21 05  07 15 02.201   -51 08 45.04  .06866 1.0108 106.8 24.6
2019 02 21 06  07 14 54.979   -51 10 17.74  .06892 1.0109 106.7 24.6
2019 02 21 07  07 14 47.809   -51 11 49.66  .06918 1.0109 106.7 24.6
2019 02 21 08  07 14 40.691   -51 13 20.81  .06943 1.0110 106.7 24.6
2019 02 21 09  07 14 33.623   -51 14 51.20  .06969 1.0110 106.6 24.6
2019 02 21 10  07 14 26.607   -51 16 20.84  .06994 1.0111 106.6 24.6